Log Lane Village, CO

6:03 AM MDT on August 27, 2016 (GMT -0600)
Fort Morgan

Weather History for KFMM - November, 2012

Change the Weather History Date:

Friday, November 9, 2012

  Actual Average (KAKO) Record (KAKO)
Temperature  
Mean Temperature 48 °F 41 °F  
Max Temperature 63 °F 53 °F 74 °F (2014)
Min Temperature 32 °F 28 °F -2 °F (1950)
Degree Days  
Heating Degree Days 18    
Month to date heating degree days  
Cooling Degree Days 0    
Month to date cooling degree days  
Moisture  
Dew Point 32 °F    
Average Humidity 70    
Maximum Humidity 93    
Minimum Humidity 31    
Precipitation  
Precipitation 0.00 in 0.02 in 0.41 in (1946)
Month to date precipitation 0.18  
Year to date precipitation 15.94  
Sea Level Pressure  
Sea Level Pressure 29.67 in    
Wind  
Wind Speed 7 mph ()    
Max Wind Speed 14 mph    
Max Gust Speed 20 mph    
Visibility 10.0 miles    
Events      
T = Trace of Precipitation, MM = Missing Value Source: Averaged Metar Reports

Daily Weather History Graph

Daily Weather History Graph

Search for Another Location

Airport or City:

Trip Planner

Search our weather history database for the weather conditions in past years. The results will help you decide how hot, cold, wet, or windy it might be!

Date:

Astronomy

Nov. 09, 2012 Rise Set
Actual Time 6:34 AM MST 4:42 PM MST
Civil Twilight 6:05 AM MST 5:11 PM MST
Nautical Twilight 5:33 AM MST 5:44 PM MST
Astronomical Twilight 5:01 AM MST 6:16 PM MST
Moon 1:35 AM MST (11/9) 1:57 PM MST (11/9)
Length of Visible Light 11h 05m
Length of Day
10h 08m
Waning Crescent, 22% of the Moon is Illuminated
Nov 9
Waning Crescent
Nov 13
New
Nov 20
First Quarter
Nov 28
Full
Dec 6
Last Quarter

Hourly Weather History & Observations

Time (MST) Temp. Windchill Dew Point Humidity Pressure Visibility Wind Dir Wind Speed Gust Speed Precip Events Conditions
12:15 AM 35.6 °F 29.2 °F 30.7 °F 82% 29.81 in 10.0 mi NNE 8.1 mph - N/A   Clear
12:35 AM 35.4 °F 29.0 °F 30.7 °F 83% 29.80 in 10.0 mi NE 8.1 mph - N/A   Clear
12:55 AM 35.6 °F 29.2 °F 31.1 °F 84% 29.80 in 10.0 mi NNE 8.1 mph - N/A   Clear
1:15 AM 35.6 °F 29.9 °F 31.1 °F 84% 29.79 in 10.0 mi NNE 6.9 mph - N/A   Clear
1:35 AM 34.7 °F 28.1 °F 30.7 °F 85% 29.79 in 10.0 mi NNE 8.1 mph - N/A   Clear
1:55 AM 35.6 °F 28.6 °F 31.1 °F 84% 29.79 in 10.0 mi NE 9.2 mph - N/A   Clear
2:15 AM 34.7 °F 27.5 °F 30.9 °F 86% 29.78 in 10.0 mi NE 9.2 mph - N/A   Clear
2:35 AM 33.1 °F 25.5 °F 30.4 °F 90% 29.77 in 10.0 mi ENE 9.2 mph - N/A   Clear
2:55 AM 33.8 °F 25.8 °F 30.9 °F 89% 29.77 in 10.0 mi NE 10.4 mph - N/A   Clear
3:15 AM 33.1 °F 25.5 °F 30.7 °F 91% 29.76 in 10.0 mi NE 9.2 mph - N/A   Clear
3:35 AM 34.2 °F - 31.3 °F 89% 29.76 in 10.0 mi Calm Calm - N/A   Clear
3:55 AM 33.1 °F 26.1 °F 30.6 °F 90% 29.76 in 10.0 mi North 8.1 mph - N/A   Clear
4:15 AM 33.8 °F 26.4 °F 31.1 °F 90% 29.76 in 10.0 mi North 9.2 mph - N/A   Clear
4:35 AM 33.3 °F 27.1 °F 30.9 °F 91% 29.76 in 10.0 mi North 6.9 mph - N/A   Clear
4:55 AM 33.8 °F 26.4 °F 31.1 °F 90% 29.76 in 10.0 mi NE 9.2 mph - N/A   Clear
5:15 AM 33.6 °F 27.5 °F 31.1 °F 90% 29.75 in 10.0 mi NE 6.9 mph - N/A   Clear
5:35 AM 33.4 °F 25.9 °F 31.1 °F 91% 29.75 in 10.0 mi NE 9.2 mph - N/A   Clear
5:55 AM 33.3 °F 26.4 °F 31.1 °F 92% 29.74 in 10.0 mi NNE 8.1 mph - N/A   Clear
6:15 AM 32.9 °F 25.9 °F 30.9 °F 92% 29.75 in 10.0 mi NE 8.1 mph - N/A   Clear
6:35 AM 32.9 °F 25.3 °F 31.1 °F 93% 29.75 in 10.0 mi ENE 9.2 mph - N/A   Clear
6:55 AM 32.9 °F 26.7 °F 31.1 °F 93% 29.76 in 10.0 mi ENE 6.9 mph - N/A   Clear
7:15 AM 32.9 °F 25.3 °F 31.1 °F 93% 29.76 in 10.0 mi ENE 9.2 mph - N/A   Clear
7:35 AM 33.1 °F 26.1 °F 31.3 °F 93% 29.76 in 10.0 mi ENE 8.1 mph - N/A   Clear
7:55 AM 34.0 °F 28.0 °F 31.6 °F 91% 29.76 in 10.0 mi ENE 6.9 mph - N/A   Clear
8:15 AM 35.1 °F 29.3 °F 32.0 °F 89% 29.76 in 10.0 mi East 6.9 mph - N/A   Clear
8:35 AM 36.0 °F 29.6 °F 31.8 °F 85% 29.75 in 10.0 mi East 8.1 mph - N/A   Clear
8:55 AM 36.9 °F 30.7 °F 31.8 °F 82% 29.75 in 10.0 mi East 8.1 mph - N/A   Clear
9:15 AM 38.7 °F 32.9 °F 32.0 °F 77% 29.75 in 10.0 mi East 8.1 mph - N/A   Clear
9:35 AM 41.9 °F 36.9 °F 32.0 °F 68% 29.74 in 10.0 mi East 8.1 mph - N/A   Clear
9:55 AM 42.3 °F 39.4 °F 32.0 °F 67% 29.74 in 10.0 mi ENE 4.6 mph - N/A   Clear
10:15 AM 43.7 °F 39.7 °F 32.0 °F 63% 29.73 in 10.0 mi ENE 6.9 mph - N/A   Clear
10:35 AM 44.4 °F 40.5 °F 32.2 °F 62% 29.72 in 10.0 mi East 6.9 mph - N/A   Clear
10:55 AM 46.6 °F - 32.5 °F 58% 29.70 in 10.0 mi East 9.2 mph - N/A   Clear
11:15 AM 48.2 °F - 32.5 °F 55% 29.69 in 10.0 mi East 8.1 mph - N/A   Clear
11:55 AM 51.3 °F - 32.9 °F 50% 29.66 in 10.0 mi East 5.8 mph - N/A   Clear
12:15 PM 53.1 °F - 33.1 °F 47% 29.66 in 10.0 mi East 5.8 mph - N/A   Clear
12:35 PM 54.3 °F - 33.1 °F 45% 29.65 in 10.0 mi Calm Calm - N/A   Clear
12:55 PM 55.6 °F - 33.3 °F 43% 29.63 in 10.0 mi East 6.9 mph - N/A   Clear
1:15 PM 56.8 °F - 33.1 °F 41% 29.61 in 10.0 mi ENE 8.1 mph - N/A   Clear
1:35 PM 59.0 °F - 32.9 °F 37% 29.62 in 10.0 mi East 9.2 mph - N/A   Clear
1:55 PM 60.4 °F - 32.7 °F 35% 29.61 in 10.0 mi East 10.4 mph - N/A   Clear
2:15 PM 61.5 °F - 32.2 °F 33% 29.60 in 10.0 mi East 10.4 mph - N/A   Clear
2:35 PM 62.6 °F - 31.8 °F 32% 29.60 in 10.0 mi East 11.5 mph - N/A   Clear
2:55 PM 63.0 °F - 31.5 °F 31% 29.59 in 10.0 mi East 10.4 mph - N/A   Clear
3:15 PM 62.6 °F - 31.3 °F 31% 29.59 in 10.0 mi ENE 11.5 mph - N/A   Clear
3:35 PM 61.7 °F - 31.5 °F 32% 29.59 in 10.0 mi East 10.4 mph - N/A   Clear
3:55 PM 60.3 °F - 31.3 °F 34% 29.59 in 10.0 mi NE 9.2 mph - N/A   Clear
4:15 PM 56.8 °F - 32.0 °F 39% 29.58 in 10.0 mi ENE 8.1 mph - N/A   Clear
4:35 PM 53.2 °F - 32.0 °F 44% 29.57 in 10.0 mi ENE 10.4 mph - N/A   Clear
4:55 PM 50.2 °F - 32.0 °F 50% 29.57 in 10.0 mi ENE 10.4 mph - N/A   Clear
5:15 PM 49.1 °F - 32.2 °F 52% 29.57 in 10.0 mi ENE 12.7 mph - N/A   Clear
5:35 PM 47.3 °F - 32.0 °F 55% 29.58 in 10.0 mi ENE 13.8 mph - N/A   Clear
5:55 PM 46.0 °F 40.6 °F 32.0 °F 58% 29.57 in 10.0 mi ENE 11.5 mph - N/A   Clear
6:15 PM 46.2 °F 40.1 °F 32.2 °F 58% 29.57 in 10.0 mi ENE 13.8 mph - N/A   Clear
6:55 PM 43.5 °F 37.1 °F 32.4 °F 65% 29.56 in 10.0 mi ENE 12.7 mph - N/A   Clear
7:15 PM 44.2 °F 38.4 °F 32.7 °F 64% 29.56 in 10.0 mi ENE 11.5 mph 19.6 mph N/A   Clear
7:35 PM 41.9 °F 35.4 °F 32.2 °F 68% 29.56 in 10.0 mi ENE 11.5 mph - N/A   Clear
7:55 PM 41.2 °F 34.5 °F 32.4 °F 71% 29.56 in 10.0 mi ENE 11.5 mph - N/A   Clear
8:15 PM 40.1 °F 35.3 °F 32.0 °F 73% 29.56 in 10.0 mi NE 6.9 mph - N/A   Clear
8:35 PM 39.0 °F 34.0 °F 32.0 °F 76% 29.56 in 10.0 mi NE 6.9 mph - N/A   Clear
8:55 PM 39.0 °F 34.8 °F 32.0 °F 76% 29.56 in 10.0 mi NNE 5.8 mph - N/A   Clear
9:15 PM 37.6 °F 32.3 °F 32.0 °F 80% 29.56 in 10.0 mi NE 6.9 mph - N/A   Clear
9:35 PM 39.9 °F 35.8 °F 32.2 °F 74% 29.56 in 10.0 mi SSW 5.8 mph - N/A   Clear
9:55 PM 37.0 °F - 31.8 °F 81% 29.55 in 10.0 mi Calm Calm - N/A   Clear
10:15 PM 38.3 °F - 32.0 °F 78% 29.55 in 10.0 mi Calm Calm - N/A   Clear
10:35 PM 35.6 °F 28.6 °F 30.7 °F 82% 29.54 in 10.0 mi West 9.2 mph - N/A   Clear
10:55 PM 35.8 °F - 32.0 °F 86% 29.54 in 10.0 mi Calm Calm - N/A   Clear
11:15 PM 35.6 °F 32.8 °F 31.5 °F 85% 29.55 in 10.0 mi South 3.5 mph - N/A   Clear
11:35 PM 35.4 °F - 30.7 °F 83% 29.54 in 10.0 mi Calm Calm - N/A   Clear
11:55 PM 37.0 °F - 31.3 °F 80% 29.53 in 10.0 mi Calm Calm - N/A   Clear